TimeAKDT,TemperatureF,Dew PointF,Humidity,Sea Level PressureIn,VisibilityMPH,Wind Direction,Wind SpeedMPH,Gust SpeedMPH,PrecipitationIn,Events,Conditions,WindDirDegrees,DateUTC
12:53 AM,42.1,26.1,53,30.25,10.0,Calm,Calm,-,N/A,,Partly Cloudy,0,2013-05-09 08:53:00
1:53 AM,41.0,26.1,55,30.25,9.0,NNE,3.5,-,N/A,,Partly Cloudy,20,2013-05-09 09:53:00
2:53 AM,39.9,26.1,58,30.25,10.0,North,3.5,-,N/A,,Partly Cloudy,360,2013-05-09 10:53:00
3:53 AM,39.0,25.0,57,30.26,10.0,Calm,Calm,-,N/A,,Scattered Clouds,0,2013-05-09 11:53:00
4:53 AM,39.0,21.0,49,30.26,10.0,Calm,Calm,-,N/A,,Scattered Clouds,0,2013-05-09 12:53:00
5:53 AM,37.9,21.0,51,30.26,10.0,North,3.5,-,N/A,,Scattered Clouds,350,2013-05-09 13:53:00
6:53 AM,39.0,21.9,50,30.26,10.0,North,3.5,-,N/A,,Mostly Cloudy,10,2013-05-09 14:53:00
7:53 AM,39.0,23.0,53,30.27,10.0,Calm,Calm,-,N/A,,Clear,0,2013-05-09 15:53:00
9:53 AM,42.1,21.9,45,30.28,10.0,Calm,Calm,-,N/A,,Overcast,0,2013-05-09 17:53:00
10:53 AM,44.1,23.0,43,30.29,10.0,Calm,Calm,-,N/A,,Overcast,0,2013-05-09 18:53:00
11:53 AM,46.0,23.0,40,30.29,10.0,North,3.5,-,N/A,,Overcast,350,2013-05-09 19:53:00
12:53 PM,48.0,24.1,39,30.30,10.0,Calm,Calm,-,N/A,,Overcast,0,2013-05-09 20:53:00
1:53 PM,48.9,24.1,38,30.30,10.0,Calm,Calm,-,N/A,,Overcast,0,2013-05-09 21:53:00
2:53 PM,50.0,25.0,38,30.30,10.0,NNW,5.8,-,0.00,Rain,Light Rain,340,2013-05-09 22:53:00
3:53 PM,53.1,28.0,38,30.28,10.0,North,10.4,-,0.00,,Scattered Clouds,350,2013-05-09 23:53:00
4:53 PM,54.0,27.0,35,30.26,10.0,North,10.4,-,N/A,,Mostly Cloudy,360,2013-05-10 00:53:00
5:53 PM,54.0,28.9,38,30.25,10.0,North,9.2,-,N/A,,Overcast,350,2013-05-10 01:53:00
6:53 PM,54.0,27.0,35,30.25,10.0,Variable,4.6,-,N/A,,Overcast,0,2013-05-10 02:53:00
7:53 PM,53.1,28.0,38,30.24,10.0,NW,4.6,-,N/A,,Overcast,320,2013-05-10 03:53:00
8:53 PM,52.0,28.0,40,30.23,10.0,North,3.5,-,N/A,,Mostly Cloudy,350,2013-05-10 04:53:00
9:53 PM,50.0,28.9,44,30.23,10.0,Calm,Calm,-,N/A,,Clear,0,2013-05-10 05:53:00
10:53 PM,48.9,28.9,46,30.23,10.0,Calm,Calm,-,N/A,,Partly Cloudy,0,2013-05-10 06:53:00
11:53 PM,48.0,30.0,50,30.24,10.0,Calm,Calm,-,N/A,,Mostly Cloudy,0,2013-05-10 07:53:00